Weather History for KCSM - November, 2012

Change the Weather History Date:

Wednesday, November 7, 2012

  Actual Average Record
Temperature  
Mean Temperature 58 °F -  
Max Temperature 72 °F 59 °F 80 °F (2005)
Min Temperature 43 °F 41 °F 30 °F (1997)
Degree Days  
Heating Degree Days 8    
Growing Degree Days 8 (Base 50)    
Moisture  
Dew Point 34 °F    
Average Humidity 47    
Maximum Humidity 76    
Minimum Humidity 23    
Precipitation  
Precipitation 0.00 in - - ()
Sea Level Pressure  
Sea Level Pressure 30.10 in    
Wind  
Wind Speed 7 mph (SSE)    
Max Wind Speed 21 mph    
Max Gust Speed 25 mph    
Visibility 10 miles    
Events      
Averages and records for this station are not official NWS values.
T = Trace of Precipitation, MM = Missing Value Source: NWS Daily Summary

Daily Weather History Graph

Daily Weather History Graph

Search for Another Location

Airport or City:

Trip Planner

Search our weather history database for the weather conditions in past years. The results will help you decide how hot, cold, wet, or windy it might be!

Date:

Astronomy

Nov. 07, 2012 Rise Set
Actual Time 7:04 AM CST 5:35 PM CST
Civil Twilight 6:37 AM CST 6:02 PM CST
Nautical Twilight 6:07 AM CST 6:32 PM CST
Astronomical Twilight 5:37 AM CST 7:02 PM CST
Moon 12:14 AM CST (11/7) 1:32 PM CST (11/7)
Length of Visible Light 11h 24m
Length of Day
10h 31m
Last Quarter, 43% of the Moon is Illuminated
Nov 7
Last Quarter
Nov 13
New
Nov 20
First Quarter
Nov 28
Full
Dec 6
Last Quarter

Hourly Weather History & Observations

Time (CST) Temp. Windchill Dew Point Humidity Pressure Visibility Wind Dir Wind Speed Gust Speed Precip Events Conditions
12:53 AM 44.1 °F - 35.1 °F 71% 30.17 in 10.0 mi Calm Calm - N/A   Clear
1:53 AM 43.0 °F - 34.0 °F 71% 30.17 in 9.0 mi Calm Calm - N/A   Clear
2:53 AM 43.0 °F 41.3 °F 34.0 °F 71% 30.15 in 9.0 mi SSW 3.5 mph - N/A   Clear
3:53 AM 43.0 °F 38.8 °F 35.1 °F 74% 30.16 in 10.0 mi SW 6.9 mph - N/A   Clear
4:53 AM 43.0 °F 38.8 °F 35.1 °F 74% 30.17 in 10.0 mi SW 6.9 mph - N/A   Clear
5:53 AM 45.0 °F 43.5 °F 35.1 °F 68% 30.17 in 10.0 mi NNE 3.5 mph - N/A   Clear
6:53 AM 43.0 °F - 35.1 °F 74% 30.19 in 10.0 mi Calm Calm - N/A   Clear
7:53 AM 45.0 °F - 37.9 °F 76% 30.21 in 10.0 mi Calm Calm - N/A   Clear
8:53 AM 57.0 °F - 37.9 °F 49% 30.20 in 10.0 mi SSE 5.8 mph - N/A   Clear
9:53 AM 62.1 °F - 35.1 °F 37% 30.19 in 10.0 mi South 11.5 mph - N/A   Clear
10:53 AM 64.9 °F - 33.1 °F 31% 30.18 in 10.0 mi South 15.0 mph - N/A   Clear
11:53 AM 68.0 °F - 33.1 °F 27% 30.14 in 10.0 mi South 16.1 mph 20.7 mph N/A   Clear
12:53 PM 70.0 °F - 32.0 °F 25% 30.09 in 10.0 mi South 15.0 mph 25.3 mph N/A   Clear
1:53 PM 72.0 °F - 32.0 °F 23% 30.06 in 10.0 mi SSE 13.8 mph - N/A   Clear
2:53 PM 72.0 °F - 32.0 °F 23% 30.04 in 10.0 mi South 17.3 mph 25.3 mph N/A   Clear
3:53 PM 72.0 °F - 33.1 °F 24% 30.03 in 10.0 mi SSE 15.0 mph - N/A   Clear
5:53 PM 64.0 °F - 34.0 °F 33% 30.03 in 10.0 mi SSE 13.8 mph - N/A   Clear
6:53 PM 62.1 °F - 33.1 °F 34% 30.03 in 10.0 mi SSE 15.0 mph - N/A   Clear
7:53 PM 60.1 °F - 34.0 °F 38% 30.02 in 10.0 mi SSE 15.0 mph - N/A   Clear
8:53 PM 59.0 °F - 34.0 °F 39% 30.01 in 10.0 mi SSE 13.8 mph - N/A   Clear
9:53 PM 57.0 °F - 34.0 °F 42% 30.00 in 10.0 mi SSE 13.8 mph - N/A   Clear
10:53 PM 57.0 °F - 34.0 °F 42% 29.99 in 10.0 mi SSE 20.7 mph - N/A   Clear
11:53 PM 57.0 °F - 35.1 °F 44% 29.97 in 10.0 mi SSE 19.6 mph - N/A   Clear